Regional Weather Roundup
Issued by NWS Upton, NY

Home | Current Version | Previous Version | Text Only | Print | Product List | Glossary On
Versions: 1 2 3 4 5 6 7 8 9 10 11 12 13 14 15 16 17 18 19 20 21 22 23 24 25 26 27 28 29 30 31 32 33 34 35 36 37 38 39 40 41 42 43 44 45 46 47 48 49 50
000
ASUS41 KOKX 161708
RWROKX

Regional Weather Roundup
National Weather Service New York NY
1200 PM EST TUE JAN 16 2018

Note: "FAIR" indicates few or no clouds below 12,000 feet with no
significant weather and/or obstructions to visibility.

NYZ071-072-176-178-NJZ106-104-161800-
New York City Metro Area

CITY           SKY/WX    TMP DP  RH WIND       PRES   REMARKS
Central Park   CLOUDY    34  26  72 CALM      30.48F
Bronx Bot Gard   N/A     32  25  74 E6        30.48F WCI  26
Bronx Lehman C   N/A     32  27  80 E3          N/A
LaGuardia Arpt CLOUDY    32  24  72 NE8       30.47F WCI  25
Queens College   N/A     34  27  75 NE3         N/A
Kennedy Intl   CLOUDY    34  29  82 E3        30.48F
Breezy Point     N/A     34 N/A N/A E6          N/A  WCI  29
Brooklyn Coll    N/A     32  30  93 E3          N/A
Staten Island    N/A     36  32  87 E3          N/A
Newark/Liberty CLOUDY    34  28  79 CALM      30.47F
Teterboro      CLOUDY    32  23  69 NE5       30.46F WCI  27
$$

NYZ177-179-078>081-161800-
Long Island New York

CITY           SKY/WX    TMP DP  RH WIND       PRES   REMARKS
Jones Beach      N/A     32 N/A N/A E7          N/A  WCI  26
Wantagh          N/A     32  28  86 E6          N/A  WCI  26
Matinecock Pt    N/A    N/A N/A N/A NE10        N/A
Farmingdale    CLOUDY    34  26  72 SE7       30.47F WCI  28
MacArthur/ISP  CLOUDY    37  27  67 SE5       30.46F WCI  33
Shirley        CLOUDY    37  28  70 S5        30.48F WCI  33
Mt Sinai Harb    N/A    N/A N/A N/A E8          N/A
Westhampton    CLOUDY    37  26  64 E7        30.49F WCI  32
East Hampton   PTSUNNY   36  29  75 SE7       30.48F WCI  31
Southold         N/A     34  25  69 NE3         N/A
Montauk          N/A     40  29  64 S5        30.50F
$$

NYZ052-065-067-161800-
Hudson Valley

CITY           SKY/WX    TMP DP  RH WIND       PRES   REMARKS
White Plains   PTSUNNY   28  21  75 CALM      30.44F
Larchmont Harb   N/A    N/A N/A N/A N7          N/A
Croton On Huds   N/A    N/A N/A N/A W2          N/A
Somers           N/A     28  25  86 E1          N/A
Brewster         N/A     30  25  80 SE1         N/A
Newburgh       CLOUDY    27  25  93 CALM      30.46F FOG
Montgomery     LGT SNOW  26  21  81 CALM      30.44F
Otisville        N/A     27  23  86 CALM        N/A
Warwick          N/A     28  25  86 NW2         N/A
Suffern          N/A     28  23  80 CALM        N/A
Poughkeepsie   CLOUDY    27  22  81 CALM      30.46F HAZE
Albany         LGT SNOW  26  19  74 S10       30.45F WCI  16
$$

NJZ001-105-106-008-010-013-015-019>022-104-161800-
New Jersey

CITY           SKY/WX    TMP DP  RH WIND       PRES   REMARKS
Newark/Liberty CLOUDY    34  28  79 CALM      30.47F
Teterboro      CLOUDY    32  23  69 NE5       30.46F WCI  27
Caldwell       CLOUDY    29  21  72 CALM      30.47F
Somerville     CLOUDY    32  25  75 CALM      30.44F
Linden         CLOUDY    34  29  81 CALM      30.47F
Perth Amboy      N/A     32 N/A N/A MISG        N/A
Sussex         CLOUDY    29  24  82 CALM      30.43F
Andover          N/A     29  25  85 CALM      30.43F
Trenton        PTSUNNY   36  27  69 SE5       30.44F WCI  32
Millville      FAIR      42  32  67 CALM      30.44F
Atlantic City  FAIR      44  31  60 E9        30.45F
Wrightstown    PTSUNNY   42  30  63 S7        30.41F
Toms River     CLOUDY    38  32  79 VRB5      30.46F WCI  34
Belmar         CLOUDY    38  31  76 E6        30.46F WCI  33
$$

PAZ047>061-062-071-161800-
Eastern Pennsylvania

CITY           SKY/WX    TMP DP  RH WIND       PRES   REMARKS
Philadelphia   PTSUNNY   38  27  64 CALM      30.45F
Allentown      CLOUDY    30  24  78 N3        30.44F HAZE
Scranton       LGT SNOW  28  25  88 CALM      30.39F FOG
$$

CTZ002-004>006-009-010-012-RIZ004-006-007-MAZ004-011-015-161800-
Southern New England

 In CT

CITY           SKY/WX    TMP DP  RH WIND       PRES   REMARKS
Bradley Intl   CLOUDY    27  17  66 S5        30.48F WCI  22
Hartford       CLOUDY   N/A N/A N/A CALM      30.49F
Danbury        CLOUDY    31  23  72 CALM      30.46F
Wtrbury/Oxford CLOUDY    29  24  82 CALM      30.45F
Norwalk Harbor   N/A    N/A N/A N/A NE8         N/A
Bridgeport     CLOUDY    28  20  71 E6        30.49F WCI  22
Meriden        CLOUDY    28  19  69 CALM      30.48F
New Haven      CLOUDY    30  20  66 SW3       30.48F
Chester        PTSUNNY   34  21  60 CALM      30.46F
Groton         CLOUDY    33  25  72 S3        30.49F
Willimantic    CLOUDY    29  19  66 CALM      30.49F

 In RI

CITY           SKY/WX    TMP DP  RH WIND       PRES   REMARKS
Providence     PTSUNNY   35  21  56 VRB5      30.49F WCI  31
Block Island   PTSUNNY   35  28  75 SE8       30.49F WCI  29
Westerly       FAIR      36  29  75 SE6       30.49F WCI  31

In MA

CITY           SKY/WX    TMP DP  RH WIND       PRES   REMARKS
Boston         PTSUNNY   30  21  69 S3        30.49F
Worcester      CLOUDY    27  17  66 SW12      30.42F WCI  17
Westfield      CLOUDY    28  19  69 SW5       30.46F WCI  23
Provincetown   FAIR      33  24  69 MISG      30.50
Nantucket      FAIR      37  28  70 NW3       30.49F
$$

ANZ330-335-338-340-345-350-353-355-161800-
Coastal Marine Observations


STATION/POSITION TIME  SKY/WX   TEMP    WIND        PRES    VSBY  WAVE
                                AIR SEA DIR/SP/G                  HT/PER
                 (UTC)          (F)     (DEG/KT/KT) (MB)    (MI)  (FT/S)
NY Harb Entrance 1650            36 42  110/ 10/ 14 1031.2          4/10
20 S Fire Island 1550            33 39   60/ 10/ 12 1032.9          5/11
15 E Barnegat Li 1630               42                N/A           7/11
Hudson Canyon    1650            42 52  100/  8/ 12 1031.1          8/11
Kings Point      1636            29 32   50/  6/  7 1033.1
Execution Rocks  NOT AVBL
Western LI Sound NOT AVBL
Central LI Sound NOT AVBL
Robbins Reef     1648            32      20/  4/  5 1032.5
$$


>>>>>>>>>>>>>>>>>>>>>>>>>>>> KEY <<<<<<<<<<<<<<<<<<<<<<<<<<<
>                                                          <
>     SKY/WX - Sky Condition/Present Weather               <
>     TMP    - Temperature in Fahrenheit                   <
>     DP     - Dew Point in Fahrenheit                     <
>     RH     - Relative Humidity in Percent                <
>     WIND   - Direction (from) and Speed in MPH           <
>     PRES   - Mean Sea Level Pressure (inches of Hg)      <
>     WCI    - Wind Chill Index                            <
>     VSB    - Visibility in Miles                         <
>     HX     - Heat Index                                  <
>     TC     - Temperature in Celsius                      <
>     VRB    - Varibale Wind Direction                     <
>                                                          <
>>>>>>>>>>>>>>>>>>>>>>>>>>>> KEY <<<<<<<<<<<<<<<<<<<<<<<<<<<



USA.gov is the U.S. government's official web portal to all federal, state and local government web resources and services.